TimeEST,TemperatureF,Dew PointF,Humidity,Sea Level PressureIn,VisibilityMPH,Wind Direction,Wind SpeedMPH,Gust SpeedMPH,PrecipitationIn,Events,Conditions,WindDirDegrees,DateUTC
12:15 AM,53.6,35.6,51,30.23,10.0,South,12.7,20.7,N/A,,Clear,180,2012-11-12 05:15:00
12:35 AM,53.6,35.6,51,30.22,10.0,South,11.5,21.9,N/A,,Clear,180,2012-11-12 05:35:00
1:15 AM,53.6,35.6,51,30.21,10.0,SSW,9.2,21.9,N/A,,Clear,200,2012-11-12 06:15:00
1:55 AM,53.6,35.6,51,30.21,10.0,South,10.4,18.4,N/A,,Clear,190,2012-11-12 06:55:00
2:15 AM,53.6,35.6,51,30.20,10.0,SSW,13.8,23.0,N/A,,Clear,200,2012-11-12 07:15:00
2:55 AM,53.6,35.6,51,30.20,10.0,SSW,12.7,19.6,N/A,,Clear,200,2012-11-12 07:55:00
3:15 AM,53.6,35.6,51,30.19,10.0,SSW,11.5,18.4,N/A,,Clear,200,2012-11-12 08:15:00
3:35 AM,53.6,35.6,51,30.20,10.0,SSW,13.8,25.3,N/A,,Clear,200,2012-11-12 08:35:00
3:55 AM,53.6,35.6,51,30.19,10.0,SSW,15.0,23.0,N/A,,Clear,200,2012-11-12 08:55:00
4:15 AM,53.6,35.6,51,30.19,10.0,SSW,13.8,19.6,N/A,,Clear,200,2012-11-12 09:15:00
4:35 AM,53.6,37.4,54,30.20,10.0,SSW,10.4,20.7,N/A,,Clear,210,2012-11-12 09:35:00
4:55 AM,53.6,37.4,54,30.20,10.0,SSW,12.7,23.0,N/A,,Clear,210,2012-11-12 09:55:00
5:15 AM,53.6,37.4,54,30.21,10.0,SSW,10.4,-,N/A,,Clear,200,2012-11-12 10:15:00
5:35 AM,53.6,37.4,54,30.21,10.0,SSW,11.5,18.4,N/A,,Clear,200,2012-11-12 10:35:00
5:55 AM,51.8,37.4,58,30.20,10.0,SSW,10.4,16.1,N/A,,Clear,200,2012-11-12 10:55:00
6:15 AM,51.8,37.4,58,30.20,10.0,SSW,11.5,17.3,N/A,,Clear,200,2012-11-12 11:15:00
6:35 AM,53.6,39.2,58,30.20,10.0,SSW,9.2,17.3,N/A,,Clear,200,2012-11-12 11:35:00
6:55 AM,51.8,39.2,62,30.19,10.0,South,12.7,17.3,N/A,,Clear,190,2012-11-12 11:55:00
7:55 AM,51.8,41.0,67,30.19,10.0,South,11.5,18.4,N/A,,Clear,190,2012-11-12 12:55:00
8:15 AM,53.6,41.0,62,30.19,10.0,South,9.2,-,N/A,,Clear,190,2012-11-12 13:15:00
8:35 AM,53.6,41.0,62,30.19,10.0,South,10.4,17.3,N/A,,Clear,190,2012-11-12 13:35:00
8:55 AM,53.6,42.8,67,30.18,10.0,SSE,9.2,-,N/A,,Clear,160,2012-11-12 13:55:00
9:15 AM,53.6,42.8,67,30.18,10.0,South,10.4,18.4,N/A,,Clear,190,2012-11-12 14:15:00
9:35 AM,53.6,44.6,72,30.18,10.0,South,8.1,-,N/A,,Clear,180,2012-11-12 14:35:00
9:55 AM,55.4,44.6,67,30.18,10.0,South,11.5,16.1,N/A,,Clear,170,2012-11-12 14:55:00
10:15 AM,55.4,44.6,67,30.17,10.0,South,15.0,24.2,N/A,,Clear,190,2012-11-12 15:15:00
10:55 AM,59.0,46.4,63,30.16,10.0,South,11.5,25.3,N/A,,Scattered Clouds,180,2012-11-12 15:55:00
11:15 AM,59.0,46.4,63,30.15,10.0,SSW,10.4,19.6,N/A,,Scattered Clouds,200,2012-11-12 16:15:00
11:35 AM,59.0,46.4,63,30.13,10.0,South,12.7,25.3,N/A,,Mostly Cloudy,190,2012-11-12 16:35:00
11:55 AM,59.0,46.4,63,30.12,10.0,South,13.8,23.0,N/A,,Mostly Cloudy,190,2012-11-12 16:55:00
12:15 PM,60.8,46.4,59,30.10,10.0,South,16.1,23.0,N/A,,Mostly Cloudy,190,2012-11-12 17:15:00
12:35 PM,60.8,46.4,59,30.09,10.0,South,16.1,24.2,N/A,,Overcast,190,2012-11-12 17:35:00
12:55 PM,60.8,46.4,59,30.07,10.0,South,17.3,25.3,N/A,,Mostly Cloudy,170,2012-11-12 17:55:00
1:15 PM,60.8,46.4,59,30.05,10.0,South,15.0,28.8,N/A,,Mostly Cloudy,170,2012-11-12 18:15:00
1:35 PM,60.8,46.4,59,30.03,10.0,South,17.3,27.6,N/A,,Mostly Cloudy,170,2012-11-12 18:35:00
1:55 PM,60.8,46.4,59,30.02,10.0,South,19.6,26.5,N/A,,Scattered Clouds,190,2012-11-12 18:55:00
2:15 PM,62.6,46.4,55,30.01,10.0,South,16.1,27.6,N/A,,Mostly Cloudy,180,2012-11-12 19:15:00
2:35 PM,60.8,46.4,59,30.01,10.0,South,16.1,27.6,N/A,,Mostly Cloudy,180,2012-11-12 19:35:00
2:55 PM,60.8,46.4,59,30.00,10.0,South,17.3,26.5,N/A,,Overcast,180,2012-11-12 19:55:00
3:35 PM,59.0,46.4,63,29.97,10.0,South,11.5,20.7,N/A,,Scattered Clouds,180,2012-11-12 20:35:00
3:55 PM,59.0,46.4,63,29.98,10.0,South,19.6,26.5,N/A,,Scattered Clouds,180,2012-11-12 20:55:00
4:15 PM,59.0,46.4,63,29.97,10.0,South,15.0,27.6,N/A,,Scattered Clouds,180,2012-11-12 21:15:00
4:35 PM,59.0,46.4,63,29.96,10.0,South,19.6,28.8,N/A,,Scattered Clouds,180,2012-11-12 21:35:00
4:55 PM,59.0,46.4,63,29.97,10.0,South,17.3,32.2,N/A,,Mostly Cloudy,180,2012-11-12 21:55:00
5:15 PM,59.0,46.4,63,29.96,10.0,South,15.0,23.0,N/A,,Overcast,170,2012-11-12 22:15:00
5:35 PM,59.0,46.4,63,29.97,10.0,South,15.0,25.3,N/A,,Overcast,180,2012-11-12 22:35:00
5:55 PM,57.2,50.0,77,29.97,10.0,South,13.8,25.3,N/A,Rain,Light Rain,180,2012-11-12 22:55:00
6:15 PM,57.2,50.0,77,29.97,10.0,South,11.5,23.0,N/A,,Light Drizzle,190,2012-11-12 23:15:00
6:35 PM,50.0,46.4,87,30.00,10.0,WNW,17.3,27.6,N/A,Rain,Rain,300,2012-11-12 23:35:00
6:55 PM,46.4,44.6,93,30.01,5.0,WNW,11.5,23.0,N/A,Rain,Rain,290,2012-11-12 23:55:00
7:15 PM,44.6,42.8,93,30.02,5.0,WNW,13.8,24.2,N/A,Rain,Rain,300,2012-11-13 00:15:00
7:35 PM,42.8,42.8,100,30.05,5.0,WNW,12.7,24.2,N/A,Rain,Rain,290,2012-11-13 00:35:00
7:55 PM,41.0,41.0,100,30.07,7.0,West,11.5,25.3,N/A,Rain,Light Rain,280,2012-11-13 00:55:00
8:15 PM,41.0,37.4,87,30.08,7.0,West,11.5,24.2,N/A,Rain,Rain,270,2012-11-13 01:15:00
8:35 PM,39.2,37.4,93,30.10,7.0,West,11.5,18.4,N/A,Rain,Rain,270,2012-11-13 01:35:00
8:55 PM,37.4,35.6,93,30.11,5.0,West,12.7,25.3,N/A,Rain,Light Rain,260,2012-11-13 01:55:00
9:15 PM,35.6,35.6,100,30.13,7.0,West,5.8,-,N/A,Rain,Rain,260,2012-11-13 02:15:00
9:35 PM,35.6,35.6,100,30.14,7.0,WSW,8.1,-,N/A,Rain,Rain,250,2012-11-13 02:35:00
9:55 PM,35.6,33.8,93,30.14,10.0,West,8.1,21.9,N/A,Rain,Rain,260,2012-11-13 02:55:00
10:15 PM,35.6,33.8,93,30.15,7.0,WSW,9.2,-,N/A,Rain,Rain,250,2012-11-13 03:15:00
10:35 PM,33.8,33.8,100,30.15,4.0,West,9.2,25.3,N/A,Rain,Light Rain,260,2012-11-13 03:35:00
10:55 PM,33.8,33.8,100,30.17,7.0,WSW,8.1,-,N/A,,Overcast,240,2012-11-13 03:55:00
11:15 PM,33.8,32.0,93,30.17,4.0,West,5.8,-,N/A,Snow,Light Snow,260,2012-11-13 04:15:00
11:35 PM,32.0,32.0,100,30.17,1.5,WSW,8.1,-,N/A,Snow,Light Snow,250,2012-11-13 04:35:00
11:55 PM,32.0,32.0,100,30.16,10.0,West,5.8,16.1,N/A,,Overcast,270,2012-11-13 04:55:00